Hourly Data Report for October 17, 2014

All times are specified in Local Standard Time (LST). Add 1 hour to adjust for Daylight Saving Time where and when it is observed.

QIKIQTARJUAQ A
NUNAVUT

67°32'48.000" N
64°01'54.000" W
5.50 m
2400577
YVM

Download Data

Hourly Data (October 2014)
Hourly Data Report for October 17, 2014
Temp Definition
°C
Dew Point Temp Definition
°C
Rel Hum Definition
%
Wind Dir Definition
10's deg

Wind Spd Definition
km/h
Visibility Definition
km
Stn Press Definition
kPa
Hmdx Definition


Wind Chill Definition


Weather Definition


TIME
00:00 Legend Double Dagger -0.4 -4.3 75 19 15 16.1 100.67   -5 Snow
01:00 Legend Double Dagger -1.1 -3.6 83 21 21 16.1 100.69   -7 LegendNANA
02:00 Legend Double Dagger -1.3 -3.7 84 20 18 16.1 100.73   -7 LegendNANA
03:00 Legend Double Dagger -1.4 -3.4 86 20 15 11.3 100.77   -6 Snow
04:00 Legend Double Dagger -1.9 -3.9 86 19 24 16.1 100.78   -8 Snow
05:00 Legend Double Dagger -0.7 -3.9 79 19 21 16.1 100.79   -6 Snow
06:00 Legend Double Dagger -0.1 -4.3 73 LegendMM 4 16.1 100.83   -1 LegendNANA
07:00 Legend Double Dagger -0.8 -3.0 85 22 9 16.1 100.87   -4 Snow
08:00 Legend Double Dagger -0.7 -2.4 88 23 8 3.2 100.93   -4 Snow
09:00 Legend Double Dagger 0.2 -0.7 94 35 37 16.1 100.96     Snow
10:00 Legend Double Dagger -0.2 -1.5 91 2 28 16.1 101.16   -7 Snow
11:00 Legend Double Dagger -0.8 -1.8 93 3 15 3.2 101.23   -5 Snow
12:00 Legend Double Dagger -0.8 -2.0 92 3 21 12.9 101.30   -6 Snow
13:00 Legend Double Dagger -0.2 -3.9 76 1 28 16.1 101.34   -7 LegendNANA
14:00 Legend Double Dagger -0.1 -4.4 73 1 21 16.1 101.38   -6 LegendNANA
15:00 Legend Double Dagger -0.8 -4.2 78 33 13 16.1 101.41   -5 LegendNANA
16:00 Legend Double Dagger -0.4 -3.7 78 34 13 16.1 101.43   -5 LegendNANA
17:00 Legend Double Dagger -3.1 -5.9 81 LegendMM 4 16.1 101.46   -5 LegendNANA
18:00 Legend Double Dagger -2.4 -4.3 87 16 5 16.1 101.48   -4 LegendNANA
19:00 Legend Double Dagger -0.9 -3.9 80 35 11 16.1 101.48   -5 LegendNANA
20:00 Legend Double Dagger -0.2 -3.4 79 35 18 16.1 101.47   -5 LegendNANA
21:00 Legend Double Dagger -0.2 -2.1 87 36 34 9.7 101.47   -7 Snow
22:00 Legend Double Dagger -0.1 -2.0 87 35 34 16.1 101.46   -7 LegendNANA
23:00 Legend Double Dagger -0.3 -2.2 87 35 30 16.1 101.46   -7 LegendNANA

Notes on Data Quality.

Legend

  • E = Estimated
  • M = Missing
  • NA = Not Available
  • ‡ = Partner data that is not subject to review by the National Climate Archives
Date modified: